Zurück zum Katalog

HULIANWANG DIGUI-109

AktivKommunikationLEO
NORAD 66919·PAYLOAD·🇨🇳 China

Gestartet Dec 6, 2025 von Wenchang Space Launch Site

Loading…

Nächste Überflüge (nächste 24 Stunden)

TLE

AktuellSource: Space-Track

Epoche: Sep 14, 2026, 19:57 UTC

1 66919U 25285E   26257.83189376 -.00000081  00000-0  92889-4 0  9990
2 66919  50.0067 184.4740 0000264 288.3513  71.7330 13.29319852 37993

Verfolge HULIANWANG DIGUI-109 in Echtzeit mit AllMySat

Download on the App Store